N0MR Weather Reports


time (UTC)temp
F
wind
direction
speed
knots
gust
knots
rain 1hr
in
rain 24hr
in
rain mn
in
humidity
%
barometer
mb
20260905103928 57 277 0.0 0.9 0.00 0.01 0.01 97 1016.7
20260905102929 57 277 0.0 0.9 0.00 0.01 0.01 97 1016.7
20260905101931 58 276 0.0 0.0 0.00 0.01 0.01 97 1016.9
20260905100928 58 276 0.0 0.0 0.00 0.01 0.01 97 1016.9
20260905095930 58 276 0.0 0.0 0.00 0.01 0.01 97 1017.0
20260905094929 58 276 0.0 0.0 0.00 0.01 0.01 97 1017.0
20260905093928 58 276 0.0 0.0 0.00 0.01 0.01 97 1017.0
20260905092929 58 276 0.0 0.0 0.00 0.01 0.01 97 1017.0
20260905091929 58 276 0.0 2.6 0.00 0.01 0.01 97 1017.1
20260905085930 58 276 0.0 0.9 0.00 0.01 0.01 97 1017.2
20260905084932 59 272 0.0 0.0 0.00 0.01 0.01 97 1017.3
20260905083929 59 272 0.0 0.0 0.00 0.01 0.01 97 1017.3
20260905082929 59 272 0.0 0.0 0.00 0.01 0.01 97 1017.2
20260905081930 59 272 0.0 0.0 0.00 0.01 0.01 97 1017.2
20260905080929 59 272 0.0 0.0 0.01 0.01 0.01 97 1017.2
20260905075930 59 272 0.0 0.0 0.01 0.01 0.01 97 1017.2
20260905074929 59 272 0.0 0.0 0.01 0.04 0.01 97 1017.0
20260905073929 59 272 0.0 0.0 0.01 0.04 0.01 97 1017.0
20260905072929 59 272 0.0 0.0 0.01 0.50 0.01 97 1016.8
20260905071930 59 272 0.0 0.0 0.01 0.50 0.01 97 1016.8
20260905070929 59 272 0.0 0.0 0.00 0.51 0.00 97 1016.8
20260905065930 59 272 0.0 0.0 0.00 0.51 0.00 97 1016.8
20260905064929 59 272 0.0 1.7 0.00 0.52 0.00 97 1017.0
20260905063930 59 272 0.0 1.7 0.00 0.52 0.00 97 1017.0
20260905062940 59 272 0.0 0.9 0.00 0.53 0.00 97 1017.0
20260905061930 59 272 0.0 0.9 0.00 0.53 0.00 97 1017.0
20260905060930 59 306 0.0 0.9 0.00 0.53 0.00 97 1017.0
20260905055930 59 306 0.0 0.9 0.00 0.53 0.00 97 1017.0
20260905054933 59 306 0.0 0.9 0.00 0.53 0.00 97 1017.0
20260905053932 60 306 0.0 0.0 0.00 0.53 0.00 97 1017.0
20260905052934 60 306 0.0 0.0 0.00 0.53 0.00 97 1017.0
20260905051931 60 306 0.0 2.6 0.00 0.53 0.00 97 1016.9
20260905050931 60 306 0.0 2.6 0.00 0.53 0.00 97 1016.9
20260905045930 60 238 0.0 0.9 0.00 0.55 0.55 97 1016.8
20260905044931 60 238 0.0 0.9 0.00 0.55 0.55 97 1016.8
20260905043930 60 238 0.0 0.9 0.00 0.67 0.67 97 1016.9
20260905042941 60 238 0.0 0.9 0.00 0.67 0.67 97 1016.9
20260905041931 60 238 0.0 0.9 0.00 0.67 0.67 97 1017.1
20260905040930 60 238 0.0 0.9 0.00 0.67 0.67 97 1017.1
20260905035931 60 255 0.0 1.7 0.00 0.67 0.53 97 1017.0
20260905033930 60 290 0.0 0.9 0.00 0.67 0.67 97 1016.9
20260905032934 60 290 0.0 0.9 0.00 0.67 0.67 97 1016.9
20260905031930 60 290 0.0 1.7 0.00 0.72 0.67 97 1016.9
20260905024931 60 240 0.0 0.0 0.00 0.74 0.67 97 1016.9
20260905023931 60 240 0.0 0.0 0.00 0.74 0.67 97 1016.9
20260905022931 60 239 0.0 0.9 0.00 0.92 0.67 97 1016.7
20260905021932 60 239 0.0 0.9 0.00 0.92 0.67 97 1016.7
20260905020931 60 239 0.0 0.9 0.00 0.92 0.53 97 1016.7
20260905015931 60 239 0.0 0.9 0.00 0.92 0.53 97 1016.7
20260905000932 60 267 0.0 0.9 0.00 0.92 0.53 96 1015.8
20260904235943 60 267 0.0 0.9 0.00 0.92 0.53 96 1015.8
20260904233329 61 330 0.0 0.0 0.00 0.92 0.67 96 1015.8
20260904232330 61 330 0.0 0.0 0.00 0.92 0.67 96 1015.8
20260904231333 61 329 0.0 3.5 0.00 0.92 0.67 96 1015.7
20260904230329 61 329 0.0 3.5 0.00 0.92 0.67 96 1015.7
20260904225329 61 64 0.0 1.7 0.00 0.92 0.55 96 1015.8
20260904224331 61 64 0.0 1.7 0.00 0.92 0.55 96 1015.8
20260904223329 62 319 0.0 1.7 0.00 0.92 0.67 96 1015.5
20260904222331 62 259 0.0 0.9 0.00 0.92 0.67 95 1015.4
20260904221329 62 259 0.0 0.9 0.00 0.92 0.67 95 1015.4
20260904220330 62 275 0.0 0.9 0.00 0.92 0.55 96 1015.3
20260904215329 62 275 0.0 0.9 0.00 0.92 0.55 96 1015.3
20260904214331 63 275 0.0 0.0 0.00 0.92 0.67 95 1015.1
20260904213329 63 275 0.0 0.0 0.00 0.92 0.67 95 1015.1
20260904212329 63 275 0.0 0.0 0.00 0.92 0.67 96 1015.0
20260904211332 63 275 0.0 0.0 0.00 0.92 0.67 96 1015.0
20260904210331 63 271 0.0 0.9 0.00 0.92 0.53 96 1015.1
20260904205334 63 271 0.0 0.9 0.00 0.92 0.53 96 1015.1
20260904203333 64 270 0.0 0.9 0.00 0.92 0.67 96 1014.9
20260904202331 63 270 0.0 1.7 0.00 0.92 0.67 97 1014.7
20260904201333 63 270 0.0 1.7 0.00 0.92 0.67 97 1014.7
20260904200330 63 215 0.0 0.0 0.00 0.92 0.53 97 1014.5
20260904195340 63 215 0.0 0.0 0.00 0.92 0.53 97 1014.5
20260904194331 63 215 0.0 0.0 0.00 0.92 0.55 97 1014.5
20260904193331 63 215 0.0 0.0 0.00 0.92 0.55 97 1014.5
20260904192332 63 215 0.0 1.7 0.00 0.92 0.67 97 1014.5
20260904165332 61 65 0.0 0.9 0.00 0.92 0.55 97 1014.1
20260904152331 60 245 0.0 1.7 0.00 0.92 0.67 97 1013.4
20260904151332 60 245 0.0 1.7 0.00 0.92 0.67 97 1013.4
20260904150333 60 246 0.0 2.6 0.00 0.92 0.53 97 1013.1
20260904145332 60 246 0.0 2.6 0.00 0.92 0.53 97 1013.1
20260904144332 60 219 0.0 3.5 0.00 0.92 0.67 97 1013.0
20260904143332 60 219 0.0 3.5 0.00 0.92 0.67 97 1013.0
20260904142331 60 221 0.0 5.2 0.00 0.92 0.67 97 1012.8
20260904141332 60 221 0.0 5.2 0.00 0.92 0.67 97 1012.8
20260904140332 60 336 0.0 3.5 0.00 0.92 0.53 97 1012.5
20260904135336 60 336 0.0 3.5 0.00 0.92 0.53 97 1012.5
20260904133332 60 267 0.0 0.9 0.00 0.92 0.55 97 1012.4
20260904132332 60 253 0.0 3.5 0.00 0.92 0.67 97 1012.0
20260904131333 60 253 0.0 3.5 0.00 0.92 0.67 97 1012.0
20260904130334 59 319 0.0 0.0 0.00 0.92 0.53 97 1012.0
20260904115334 58 49 0.0 0.9 0.00 0.92 0.55 97 1011.4
20260904114333 58 49 0.0 0.9 0.00 0.92 0.55 97 1011.4
20260904113332 58 246 0.0 1.7 0.00 0.92 0.67 97 1011.1
20260904112334 58 246 0.0 1.7 0.00 0.92 0.67 97 1011.1
20260904111334 58 36 0.0 1.7 0.00 0.92 0.53 97 1010.9
20260904110336 58 36 0.0 1.7 0.00 0.92 0.53 97 1010.9
20260904105343 58 44 0.0 1.7 0.00 0.92 0.55 97 1011.0
20260904104334 58 44 0.0 1.7 0.00 0.92 0.55 97 1011.0